Regional Weather Roundup
Issued by NWS

Home | Current Version | Previous Version | Text Only | Print | Product List | Glossary Off
Versions: 1 2 3 4 5 6 7 8 9 10 11 12 13 14 15 16 17 18 19 20 21 22 23 24 25 26 27 28 29 30 31 32 33 34 35 36 37 38 39 40 41 42 43 44 45 46 47 48 49 50

000
ASUS43 KFSD 200910
RWRSD

WEATHER ROUNDUP FOR SOUTH DAKOTA
NATIONAL WEATHER SERVICE SIOUX FALLS SD
400 AM CDT SUN MAY 20 2018

NOTE: "FAIR" INDICATES FEW OR NO CLOUDS BELOW 12,000 FEET WITH NO
SIGNIFICANT WEATHER AND/OR OBSTRUCTIONS TO VISIBILITY.


SDZ001>005-009-010-012>017-201000-
NORTHWEST AND NORTH CENTRAL SOUTH DAKOTA

CITY           SKY/WX    TMP DP  RH WIND       PRES   REMARKS
BUFFALO          N/A     43  33  68 SE5       30.19S
FAITH            N/A     44  37  76 E3        30.25S
MOBRIDGE       PTCLDY    49  37  63 E9        30.22F
$$

SDZ012>016-024>037-041>051-057-063-072>074-201000-
SOUTHWEST AND SOUTH CENTRAL SOUTH DAKOTA

CITY           SKY/WX    TMP DP  RH WIND       PRES   REMARKS
RAPID CTY ARPT CLOUDY    42  35  76 CALM      30.25F
PIERRE         PTCLDY    45  41  86 NE12      30.20F
CUSTER         MOCLDY    36  30  79 NE3       30.25F
ELLSWORTH AFB  CLOUDY    43  38  82 SW3       30.25S
PHILIP         MOCLDY    41  38  89 W3        30.23F
PINE RIDGE     MOCLDY    40  40 100 CALM      30.24F
SPEARFISH      FAIR      37  36  93 SE3       30.25F
WINNER         FAIR      43  37  79 NW9       30.17F
$$

SDZ004>011-016>023-039-040-201000-
NORTHEAST SOUTH DAKOTA

CITY           SKY/WX    TMP DP  RH WIND       PRES   REMARKS
ABERDEEN       PTCLDY    40  34  79 N7        30.22S
WATERTOWN      PTCLDY    47  38  71 NE6       30.19S
BROOKINGS      CLOUDY    50  40  68 NE12      30.16F
SISSETON         N/A     40  33  76 NW3       30.22R
$$

SDZ017-020-022-023-036>040-048>070-201000-
SOUTHEAST SOUTH DAKOTA

CITY           SKY/WX    TMP DP  RH WIND       PRES   REMARKS
SIOUX FALLS    CLOUDY    51  43  74 NE10      30.14R
HURON          MOCLDY    43  37  79 N7        30.19R
CHAMBERLAIN    PTCLDY    49  38  64 N9        30.18S
MITCHELL       CLOUDY    56  43  61 NE9       30.16S
YANKTON        CLOUDY    53  50  89 NE8       30.12S
$$

ABBREVIATIONS USED IN REMARKS
   TC - TEMPERATURE IN CELSIUS
  WCI - WIND CHILL INDEX
   HX - HEAT INDEX
  VSB - VISIBILITY





USA.gov is the U.S. government's official web portal to all federal, state and local government web resources and services.